Location: Krakow
(50.0830°N, 19.9170°E)
Time: 10:21:02
(UTC+01:00)

Transit 2A - Pass Details

Date: 09 February 2023
Orbit: 591 x 964 km, 66.7° (Epoch: 21 March)

Event Time Altitude Azimuth Distance (km) Brightness Sun altitude
Rises 13:58:36 0° 158° (SSE) 3,013 9.6 19.8°
Reaches altitude 10° 14:01:52 10° 134° (SE) 2,179 8.6 19.5°
Maximum altitude 14:04:25 14° 103° (ESE) 1,967 8.0 19.3°
Drops below altitude 10° 14:07:07 10° 72° (ENE) 2,315 8.1 19.0°
Sets 14:10:45 0° 49° (NE) 3,339 8.7 18.7°
